[[{"header":{"parameterUnit":"m.s-1","parameterCategory":1,"la1":30.2991,"la2":30.254,"lo1":-89.0895,"lo2":-89.0444,"dy":0.0017,"dx":0.0017,"nx":28,"ny":28,"refTime":"2024-02-14T03:00:00:Z","depth":0,"parameterNumber":2,"parameterNumberName":"U-component_of_WINDS"},"data":[0,0,0,0,0,0,0,0,0,0,0,0,0,0,0,0,0,0,0,0,0,0,0,0,0,0,0,0,0,0,0,0,0,0,0,0,0,0,0,0,0,0,0,0,0,0,0,0,0,0,0,0,0,0,0,0,0,0,-0.6394,-0.6394,0,-0.6436,-0.6437,-0.6437,-0.6428,-0.6427,-0.6426,-0.6425,-0.6473,-0.6475,-0.6477,0,0,0,0,0,0,0,0,0,0,0,0,0,-0.6311,-0.6312,-0.6394,-0.6394,-0.6395,-0.6436,-0.6437,-0.6437,-0.6428,-0.6427,-0.6426,-0.6425,-0.6473,-0.6475,-0.6477,0,0,0,0,0,0,0,0,0,0,0,0,0,-0.6349,-0.6313,-0.6394,-0.6395,-0.6396,-0.6436,-0.6437,-0.6437,-0.6428,-0.6427,-0.6426,-0.6424,-0.6472,-0.6475,-0.6478,-0.6521,0,0,-0.6487,-0.6488,0,0,0,0,0,0,0,0,-0.6347,-0.6353,-0.6394,-0.6395,-0.6396,-0.6425,-0.6425,-0.6466,-0.6428,-0.6416,-0.6425,-0.6424,-0.6459,-0.6463,-0.6473,-0.6523,-0.6525,-0.6487,-0.6489,-0.649,-0.6491,0,0,0,0,0,0,0,-0.6345,-0.6351,-0.6411,-0.6395,-0.6396,-0.6395,-0.64,-0.6433,-0.6444,-0.6417,-0.6416,-0.6421,-0.6459,-0.647,-0.6474,-0.6526,-0.6487,-0.649,-0.6492,-0.6493,-0.6614,-0.6616,0,0,0,0,0,0,-0.6341,-0.6348,-0.6409,-0.6412,-0.6368,-0.6398,-0.6402,-0.6417,-0.6443,-0.6446,-0.6422,-0.6421,-0.6466,-0.6471,-0.6476,-0.6528,-0.649,-0.6493,-0.6495,-0.6613,-0.6615,-0.6616,0,0,0,0,0,0,-0.6339,-0.6346,-0.6408,-0.638,-0.6388,-0.6401,-0.6417,-0.6419,-0.643,-0.6447,-0.645,-0.6432,-0.6465,-0.6472,-0.651,-0.653,-0.6495,-0.6497,-0.6611,-0.6613,-0.6615,-0.6634,0,0,0,0,0,0,-0.6336,-0.6345,-0.6361,-0.638,-0.6389,-0.6439,-0.6418,-0.642,-0.6435,-0.6433,-0.6457,-0.6459,-0.6465,-0.6505,-0.6513,-0.6534,-0.65,-0.661,-0.6612,-0.6615,-0.6631,-0.6636,-0.664,0,0,0,0,0,-0.6334,-0.6365,-0.6361,-0.6369,-0.6408,-0.644,-0.6445,-0.6449,-0.6436,-0.6453,-0.6464,-0.6459,-0.6527,-0.6509,-0.6517,-0.654,-0.6608,-0.6612,-0.6615,-0.6629,-0.6635,-0.664,0,0,0,0,0,0,-0.6348,-0.6367,-0.6364,-0.6402,-0.6419,-0.6438,-0.6459,-0.6455,-0.6478,-0.6475,-0.6481,-0.6486,-0.6525,-0.6536,-0.6516,-0.6583,-0.6566,-0.6571,-0.6574,-0.658,-0.6584,-0.6581,-0.6502,0,0,0,0,0,-0.6356,-0.6378,-0.6395,-0.6427,-0.6436,-0.6446,-0.646,-0.6461,-0.648,-0.6488,-0.6502,-0.6522,-0.6548,-0.6565,-0.6589,-0.6633,-0.6639,-0.6653,-0.6657,-0.6661,-0.6665,-0.669,-0.6697,-0.6627,-0.6627,-0.6626,0,0,-0.6372,-0.6385,-0.6399,-0.643,-0.6444,-0.6469,-0.6452,-0.6479,-0.6498,-0.6493,-0.6528,-0.654,-0.6563,-0.6604,-0.6623,-0.6614,-0.6686,-0.6665,-0.6668,-0.667,-0.6694,-0.6701,-0.6707,-0.6629,-0.6628,-0.6628,0,0,-0.6414,-0.6426,-0.6454,-0.6468,-0.6488,-0.6495,-0.6502,-0.6522,-0.6529,-0.6565,-0.6561,-0.6585,-0.663,-0.6646,-0.666,-0.671,-0.6707,-0.6718,-0.6742,-0.6766,-0.6772,-0.6777,-0.6795,-0.6801,-0.6723,-0.6723,-0.6723,0,-0.6431,-0.6467,-0.647,-0.6497,-0.6511,-0.6506,-0.6536,-0.655,-0.6579,-0.6589,-0.658,-0.6635,-0.6651,-0.6696,-0.6708,-0.672,-0.6729,-0.6715,-0.677,-0.6775,-0.678,-0.6797,-0.6804,-0.6724,-0.6724,-0.6724,-0.6724,0,-0.6488,-0.6513,-0.6534,-0.656,-0.6577,-0.6606,-0.6614,-0.6631,-0.6632,-0.664,-0.6678,-0.6696,-0.6725,-0.6736,-0.6737,-0.6782,-0.6777,-0.6769,-0.6751,-0.6788,-0.6804,-0.6811,-0.6726,-0.6725,-0.6725,-0.6725,0,0,-0.6539,-0.6567,-0.6574,-0.6586,-0.6609,-0.6629,-0.6659,-0.6685,-0.6701,-0.6721,-0.6746,-0.6785,-0.6778,-0.6794,-0.6797,-0.6819,-0.6858,-0.6808,-0.6809,-0.6817,-0.6909,-0.6915,-0.6922,-0.6856,-0.6857,-0.6858,-0.6908,0,-0.6583,-0.6632,-0.6636,-0.6682,-0.6706,-0.6702,-0.6728,-0.6746,-0.6755,-0.6779,-0.679,-0.6816,-0.6805,-0.6815,-0.6836,-0.6848,-0.6876,-0.6845,-0.6881,-0.6882,-0.6875,-0.6931,-0.6937,-0.6982,-0.6914,-0.6915,-0.6916,0,-0.6641,-0.6661,-0.6708,-0.6728,-0.6739,-0.6762,-0.6787,-0.6809,-0.683,-0.6835,-0.6854,-0.6855,-0.6887,-0.6869,-0.6914,-0.6893,-0.6908,-0.6917,-0.6919,-0.6922,-0.6901,-0.6936,-0.6997,-0.7004,-0.6926,-0.6925,-0.6924,0,-0.6673,-0.6713,-0.6747,-0.6757,-0.6781,-0.6798,-0.6809,-0.6829,-0.6845,-0.6868,-0.6879,-0.6906,-0.6921,-0.6943,-0.6952,-0.6938,-0.6997,-0.6979,-0.7004,-0.7003,-0.7016,-0.7015,-0.708,-0.7026,-0.7026,-0.7026,-0.7026,0,-0.6722,-0.6751,-0.6762,-0.6782,-0.6815,-0.6821,-0.6854,-0.6865,-0.6883,-0.6907,-0.6907,-0.693,-0.694,-0.6966,-0.6973,-0.701,-0.7017,-0.7023,-0.7025,-0.7023,-0.7022,-0.7033,-0.703,-0.7028,-0.7027,-0.7027,-0.7027,0,-0.6763,-0.6772,-0.6808,-0.6828,-0.6834,-0.6858,-0.6876,-0.6897,-0.6906,-0.6937,-0.6944,-0.696,-0.6989,-0.7001,-0.7038,-0.7043,-0.7086,-0.7085,-0.7078,-0.7078,-0.7102,-0.7099,-0.7176,-0.7186,-0.7126,-0.7126,-0.7127,0,-0.6793,-0.6816,-0.6838,-0.6853,-0.6865,-0.689,-0.6906,-0.6913,-0.693,-0.6957,-0.6975,-0.7004,-0.7028,-0.7077,-0.7092,-0.7121,-0.7121,-0.7145,-0.7125,-0.7123,-0.7121,-0.712,-0.7122,-0.7149,-0.715,-0.715,-0.7151,0,-0.6846,-0.6849,-0.6872,-0.6896,-0.6915,-0.6935,-0.6955,-0.6968,-0.6978,-0.6998,-0.7028,-0.7046,-0.7084,-0.7113,-0.7143,-0.7157,-0.7156,-0.7157,-0.7164,-0.7162,-0.7158,-0.7161,-0.7088,-0.7155,-0.7155,-0.7154,-0.7154,-0.7154,-0.6883,-0.6903,-0.6922,-0.6947,-0.6963,-0.6981,-0.7002,-0.7013,-0.7038,-0.7067,-0.7071,-0.7103,-0.7126,-0.7165,-0.718,-0.7207,-0.72,-0.7211,-0.7213,-0.7216,-0.7218,-0.7153,-0.7213,-0.7212,-0.7212,-0.7212,-0.7212,0,-0.6936,-0.6948,-0.6971,-0.6998,-0.7019,-0.7015,-0.7037,-0.7055,-0.7082,-0.7103,-0.7126,-0.7161,-0.719,-0.7208,-0.7238,-0.7256,-0.7257,-0.7264,-0.7263,-0.7266,-0.7221,-0.7212,-0.7263,-0.7263,-0.7263,-0.7263,-0.7263,-0.7263,-0.6966,-0.6999,-0.7005,-0.7047,-0.7059,-0.7089,-0.7102,-0.712,-0.7136,-0.7175,-0.7198,-0.7209,-0.7229,-0.7261,-0.7288,-0.7293,-0.7304,-0.7312,-0.7316,-0.7274,-0.7269,-0.7264,-0.7255,-0.7314,-0.7314,-0.7358,-0.7359,-0.7359]},{"header":{"parameterUnit":"m.s-1","parameterCategory":1,"la1":30.2991,"la2":30.254,"lo1":-89.0895,"lo2":-89.0444,"dy":0.0017,"dx":0.0017,"nx":28,"ny":28,"refTime":"2024-02-14T03:00:00:Z","depth":0,"parameterNumber":3,"parameterNumberName":"V-component_of_WINDS"},"data":[0,0,0,0,0,0,0,0,0,0,0,0,0,0,0,0,0,0,0,0,0,0,0,0,0,0,0,0,0,0,0,0,0,0,0,0,0,0,0,0,0,0,0,0,0,0,0,0,0,0,0,0,0,0,0,0,0,0,1.8659,1.8661,0,1.879,1.8791,1.8793,1.8818,1.8817,1.8816,1.8815,1.8943,1.8947,1.8951,0,0,0,0,0,0,0,0,0,0,0,0,0,1.8424,1.8428,1.8659,1.8661,1.8662,1.879,1.8791,1.8793,1.8818,1.8817,1.8816,1.8815,1.8941,1.8946,1.8952,0,0,0,0,0,0,0,0,0,0,0,0,0,1.8537,1.843,1.8659,1.869,1.8695,1.8789,1.8792,1.8794,1.8818,1.8817,1.8815,1.8814,1.894,1.8946,1.8952,1.9023,0,0,1.8972,1.8975,0,0,0,0,0,0,0,0,1.8531,1.8546,1.8684,1.8688,1.8693,1.8786,1.8755,1.887,1.8819,1.8771,1.8815,1.8813,1.8891,1.8902,1.893,1.9029,1.9035,1.8973,1.8977,1.898,1.8981,0,0,0,0,0,0,0,1.8523,1.854,1.8711,1.8686,1.8692,1.8696,1.871,1.8777,1.8838,1.8775,1.8777,1.8793,1.8894,1.8923,1.8933,1.9036,1.8973,1.8978,1.8982,1.8985,1.9198,1.9199,0,0,0,0,0,0,1.851,1.8534,1.8707,1.8715,1.8607,1.8701,1.8717,1.8758,1.8837,1.8848,1.8794,1.8794,1.8913,1.8925,1.8937,1.9024,1.898,1.8986,1.8989,1.9196,1.9198,1.92,0,0,0,0,0,0,1.8505,1.8526,1.8701,1.8625,1.8648,1.8707,1.8752,1.8761,1.8791,1.8852,1.8862,1.8814,1.8912,1.8928,1.9001,1.9029,1.8989,1.8995,1.9194,1.9197,1.9199,1.9199,0,0,0,0,0,0,1.8498,1.8524,1.8553,1.8625,1.8652,1.8766,1.8754,1.8765,1.8803,1.8803,1.8873,1.8883,1.8912,1.8992,1.9008,1.9037,1.9,1.9192,1.9195,1.9198,1.9196,1.9201,1.9205,0,0,0,0,0,1.849,1.8547,1.8554,1.8575,1.869,1.8767,1.8782,1.8816,1.8805,1.8834,1.8872,1.8881,1.9023,1.8999,1.9018,1.9049,1.919,1.9194,1.9198,1.9195,1.92,1.9205,0,0,0,0,0,0,1.8474,1.8557,1.8566,1.8649,1.8701,1.8771,1.8809,1.8821,1.8876,1.8874,1.8912,1.8928,1.8998,1.9031,1.9003,1.912,1.9106,1.9113,1.9097,1.9102,1.9106,1.9097,1.9005,0,0,0,0,0,1.8481,1.8539,1.8607,1.8673,1.8699,1.8749,1.8784,1.8806,1.8861,1.8882,1.8927,1.8978,1.9034,1.907,1.9125,1.9201,1.9215,1.9232,1.9236,1.9239,1.9245,1.9285,1.9293,1.9213,1.9213,1.9213,0,0,1.8494,1.8546,1.858,1.8671,1.8714,1.8771,1.8768,1.8828,1.887,1.8891,1.8963,1.8997,1.9056,1.9131,1.9166,1.916,1.927,1.9244,1.9246,1.925,1.929,1.9298,1.9304,1.9216,1.9215,1.9215,0,0,1.8547,1.8594,1.8653,1.8696,1.8762,1.8795,1.8809,1.8878,1.8901,1.8975,1.8991,1.904,1.9137,1.9178,1.9211,1.9278,1.9287,1.9295,1.9316,1.9355,1.9361,1.9367,1.9389,1.9397,1.9301,1.9301,1.9301,0,1.8555,1.8644,1.8681,1.8742,1.878,1.8803,1.8862,1.8901,1.898,1.9005,1.8998,1.9119,1.916,1.9244,1.926,1.9287,1.9302,1.9287,1.9358,1.9364,1.937,1.9391,1.94,1.9301,1.9301,1.9301,1.9301,0,1.8649,1.871,1.875,1.8828,1.887,1.8929,1.8973,1.9011,1.9029,1.9062,1.9134,1.9185,1.925,1.9272,1.9289,1.9357,1.9351,1.9351,1.9336,1.9377,1.9398,1.9407,1.9302,1.9302,1.9301,1.9301,0,0,1.8697,1.8794,1.8808,1.8843,1.8916,1.8963,1.9021,1.9087,1.9118,1.9171,1.922,1.93,1.93,1.9337,1.9359,1.9394,1.9441,1.9389,1.939,1.9395,1.9517,1.9516,1.9525,1.9448,1.9449,1.9451,1.9511,0,1.8758,1.8867,1.8901,1.899,1.9045,1.9067,1.9118,1.9167,1.9198,1.9248,1.9282,1.9338,1.9334,1.9356,1.9391,1.9428,1.9466,1.9424,1.9491,1.9493,1.9475,1.9537,1.9537,1.9592,1.952,1.9521,1.9522,0,1.8845,1.8901,1.8996,1.9061,1.9085,1.913,1.9192,1.924,1.9295,1.9315,1.9357,1.9376,1.9435,1.9418,1.9498,1.9469,1.9498,1.952,1.9523,1.953,1.9509,1.9544,1.961,1.9618,1.9536,1.9535,1.9534,0,1.8868,1.8967,1.9037,1.9066,1.9144,1.9175,1.9208,1.9262,1.9298,1.9351,1.9374,1.9433,1.9464,1.9508,1.9541,1.9526,1.9618,1.9604,1.9634,1.9633,1.9652,1.9651,1.9723,1.9673,1.9672,1.9672,1.9672,0,1.8932,1.8989,1.9048,1.9091,1.9154,1.9192,1.9253,1.9287,1.9334,1.9381,1.9403,1.9446,1.9488,1.9536,1.9562,1.9624,1.9638,1.9654,1.9661,1.9652,1.965,1.9671,1.9668,1.9675,1.9674,1.9674,1.9673,0,1.897,1.9012,1.9088,1.9156,1.9174,1.9217,1.9274,1.9314,1.9346,1.9406,1.9422,1.9472,1.9529,1.9567,1.964,1.9657,1.9724,1.973,1.9706,1.9709,1.9737,1.9733,1.9825,1.9838,1.9779,1.978,1.978,0,1.9008,1.9052,1.9124,1.9158,1.9192,1.9247,1.9285,1.9323,1.936,1.9425,1.9457,1.9517,1.9566,1.9657,1.9698,1.9753,1.976,1.9788,1.9768,1.9758,1.9758,1.9755,1.9759,1.9791,1.9791,1.9792,1.9792,0,1.907,1.9088,1.9143,1.9204,1.9248,1.9298,1.9347,1.9373,1.9419,1.9459,1.952,1.9558,1.9633,1.9691,1.975,1.9782,1.9793,1.9798,1.9808,1.9799,1.9783,1.9791,1.9714,1.9795,1.9795,1.9795,1.9795,1.9795,1.9108,1.9148,1.9205,1.9264,1.9305,1.935,1.9391,1.9428,1.948,1.9545,1.9564,1.9626,1.9677,1.9758,1.979,1.9838,1.9834,1.9849,1.9852,1.9855,1.9854,1.9776,1.9849,1.9849,1.9849,1.9849,1.9848,0,1.917,1.9208,1.9262,1.9331,1.9376,1.9386,1.944,1.9477,1.9532,1.958,1.9628,1.9696,1.9752,1.9797,1.9854,1.9883,1.989,1.9896,1.9894,1.9901,1.9855,1.984,1.989,1.989,1.989,1.989,1.989,1.989,1.9208,1.9276,1.93,1.9387,1.9423,1.9486,1.9516,1.9557,1.9595,1.967,1.9718,1.9747,1.9793,1.9853,1.9904,1.9915,1.9935,1.994,1.9952,1.9909,1.9904,1.99,1.9886,1.9944,1.9944,1.9994,1.9994,1.9995]}]]